PulseSat

PulseSat

MOLNIYA 3-41

Last updated on April 19, 2019, 2:59 a.m. UTC

1 21706U 91065A   19108.58556764 -.00000674  00000-0  75914-2 0  9998
2 21706  64.3519 289.6720 6921416 268.8020  31.8071  2.04361341203318
UTC
Height (km)
Latitude
Longitude
Inclination
Orbital Period

Next 30 passes for location: Hong Kong

Rise time Rise Azimuth (degrees) Set time Set Azimuth (degrees) Duration Max altitude (degrees)

No matching passes for this satellites

PulseSat

PulseSat is the new satellites software and hardware trackering solution by Pulsely.
Satellite Two Line Element Set source: US Air Force Space Command

Download PulseSat for iOS
© 2017 Pulsely Limited